sat.trackr.live / text

‹ back to catalog

STARLINK-31564

NORAD 59526 · 2024-073R

PAYLOAD ACTIVE UNKNOWN

§ Identity

Operator
Country
US
Launch date
2024-04-17
Launch site
AFETR
Launch vehicle
Mass (kg)
RCS (m²)

Purposes: comms

External: N2YO · Heavens-Above · Gunter

§ Orbital elements

Epoch: 2026-09-21T03:50:22.768800Z

Period
94.27 min
Inclination
43.0028°
Eccentricity
0.0001550
Mean motion
15.27579854 rev/d
Perigee alt
482.0 km
Apogee alt
484.1 km
Semi-major
6,861.2 km
B*
3.3176e-5
RAAN
293.8184°
Arg perigee
273.4542°
Mean anomaly
86.6132°
Rev number
13,607

§ Raw data

STARLINK-315641 59526U 24073R   26264.15998575  .00000651  00000+0  33176-4 0  99972 59526  43.0028 293.8184 0001550 273.4542  86.6132 15.27579854136075

JSON: /api/v1/satellites/59526 · /tle

For live sub-satellite position, see the globe view (requires WebGL).

§ Visibility from observer

Set your observer location to see the next 7 days of passes ≥ 10°. The values pass through the URL so the page stays shareable.

No JS? Fill the form by hand. The geolocation button needs JavaScript.